Flag for Germany Weather past 2 weeks in Lübbecke, North Rhine-Westphalia, Germany

Now
61 °F

Partly sunny.


Feels Like: 61 °F
Forecast: 43 / 68 °F
Wind: 14 mph from West

Location: Bueckeburg

Current Time: Jun 3, 2015 at 10:14:51 AM

Latest Report: Jun 3, 2015 at 9:20 AM


Visibility: N/A

Pressure: 30.04 "Hg

Humidity: 72%

Dew point: 52 °F

Location of LübbeckeLocation

Historic Weather in Lübbecke — Graph

°F

Lübbecke temperature yesterday

Maximum temperature yesterday: 70 °F (at 4:20 PM)
Minimum temperature yesterday: 54 °F (at 2:20 AM)
Average temperature yesterday: 63 °F

Past Weeks' High & Low Weather Summary

 TemperatureHumidityPressure
High70 °F (Jun 2, 4:20 PM)100% (May 24, 6:20 AM)30.33 "Hg (May 24, 6:20 AM)
Low39 °F (May 24, 4:20 AM)39% (May 21, 5:20 PM)29.65 "Hg (May 19, 8:20 AM)
Average55 °F68%29.99 "Hg
* Reported May 19 8:20 AM — Jun 3 8:20 AM, Lübbecke, Weather by CustomWeather, © 2015

Note: Actual official high and low records may vary slightly from our data, if they occured in-between our weather recording intervals... More about our weather records

Advertising

Lübbecke weather history for previous 24 hours

 ConditionsComfort  
Time TempWeatherWind HumidityBarometerVisibility
8:20 AM
Wed, Jun 3
59 °FPartly sunny.10 mph82%29.98 "HgN/A
7:20 AM57 °FPartly sunny.10 mph94%29.98 "HgN/A
6:20 AM57 °FDrizzle. Partly sunny.9 mph94%29.95 "HgN/A
5:20 AM59 °FPassing clouds.13 mph88%29.95 "HgN/A
4:20 AM61 °FPassing clouds.14 mph88%29.92 "HgN/A
3:20 AM66 °FPassing clouds.15 mph64%29.89 "HgN/A
2:20 AM66 °FPassing clouds.13 mph64%29.89 "HgN/A
1:20 AM66 °FPassing clouds.17 mph64%29.89 "HgN/A
12:20 AM66 °FPassing clouds.17 mph60%29.89 "HgN/A
11:20 PM
Tue, Jun 2
66 °FPassing clouds.17 mph64%29.89 "HgN/A
10:20 PM66 °FPartly sunny.14 mph64%29.89 "HgN/A
9:20 PM66 °FPartly sunny.13 mph64%29.89 "HgN/A
8:20 PM68 °FPartly sunny.14 mph60%29.86 "HgN/A
7:20 PM68 °FPartly sunny.15 mph60%29.86 "HgN/A
6:46 PM68 °FPartly sunny.24 mph60%29.86 "HgN/A
6:20 PM68 °FBroken clouds.18 mph60%29.86 "HgN/A
5:20 PM70 °FLight rain. Partly sunny.23 mph53%29.83 "HgN/A
4:20 PM70 °FPartly sunny.25 mph53%29.80 "HgN/A
3:20 PM68 °FBroken clouds.18 mph56%29.83 "HgN/A
2:20 PM66 °FPartly sunny.21 mph56%29.83 "HgN/A
1:20 PM66 °FPartly sunny.23 mph52%29.80 "HgN/A
12:20 PM64 °FPartly sunny.21 mph52%29.83 "HgN/A
11:20 AM63 °FLight rain. Partly sunny.21 mph49%29.80 "HgN/A
10:20 AM64 °FBroken clouds.18 mph46%29.80 "HgN/A
Weather by CustomWeather, © 2015

See weather overviewHow to use our weather pages